Overview Statistics Trail Chart Weather Telemetry Raw packets
 

This is the latest recevied weather packets stored in our database for station/object s59zo-6. If no packets are shown the sender has not sent any weather packets the latest 10 day(s).

<< 10 11 12 13 14 15 16 >>
Time Temp. Humidity Pressure Rain* Wind** Luminosity Snow
1788628805 26.11° C 46% 1019.3 hPa 0 mm - - -
1788628504 26.11° C 47% 1019.4 hPa 0 mm - - -
1788628205 25.56° C 47% 1019.2 hPa 0 mm - - -
1788627905 25.56° C 47% 1019.2 hPa 0 mm - - -
1788627605 25.56° C 47% 1019.2 hPa 0 mm - - -
1788627304 25.56° C 47% 1019.3 hPa 0 mm - - -
1788627005 25.56° C 46% 1019.4 hPa 0 mm - - -
1788626704 26.11° C 46% 1019.5 hPa 0 mm - - -
1788626405 25.56° C 46% 1019.4 hPa 0 mm - - -
1788626105 25.56° C 46% 1019.3 hPa 0 mm - - -
1788625805 25.56° C 47% 1019.1 hPa 0 mm - - -
1788625504 25.56° C 48% 1019.1 hPa 0 mm - - -
1788625205 25.56° C 48% 1019 hPa 0 mm - - -
1788624905 25.56° C 48% 1018.9 hPa 0 mm - - -
1788624605 25.56° C 47% 1019 hPa 0 mm - - -
1788624304 26.67° C 45% 1018.9 hPa 0 mm - - -
1788624005 26.67° C 45% 1018.9 hPa 0 mm - - -
1788623705 26.67° C 44% 1018.8 hPa 0 mm - - -
1788623405 26.67° C 44% 1018.7 hPa 0 mm - - -
1788623104 27.22° C 42% 1018.8 hPa 0 mm - - -
1788622805 27.78° C 39% 1018.6 hPa 0 mm - - -
1788622505 27.78° C 38% 1018.5 hPa 0 mm - - -
1788622206 28.33° C 37% 1018.3 hPa 0 mm - - -
1788621905 28.33° C 37% 1018.3 hPa 0 mm - - -
1788621605 28.33° C 36% 1018 hPa 0 mm - - -

* Rain latest hour (hover to see other rain measurements)
** Current wind speed in m/s (hover to see current wind gust speed)